Regional Weather Roundup
Issued by NWS Wakefield, VA

Home | Current Version | Previous Version | Text Only | Print | Product List | Glossary Off
Versions: 1 2 3 4 5 6 7 8 9 10 11 12 13 14 15 16 17 18 19 20 21 22 23 24 25 26 27

000
ASUS41 KAKQ 220710
RWRAKQ

REGIONAL WEATHER ROUNDUP
NATIONAL WEATHER SERVICE WAKEFIELD VA
300 AM EDT TUE APR 22 2014

Note: "fair" indicates few or no clouds below 12,000 feet with no
significant weather and/or obstructions to visibility. * = Denotes
station may not report precipitation (e.g., rain,snow,etc.),
thunder or fog.

VAZ042-051-052>054-056-220800-
NORTHERN VIRGINIA

CITY           SKY/WX    TMP DP  RH WIND       PRES   REMARKS
WASH NATIONAL  MOCLDY    55  46  71 S9        29.83F
DULLES         PTCLDY    51  40  65 S5        29.81F
FORT BELVOIR   PTCLDY    46  42  86 E1        29.83F
QUANTICO       PTCLDY    55  48  77 SW6       29.84F
FREDERICKSBRG* PTCLDY    54  46  76 CALM      29.83F
STAFFORD*      PTCLDY    50  44  82 CALM      29.87F
WARRENTON      PTCLDY    53  46  76 CALM      29.81F
CULPEPER*      MOCLDY    52  39  62 CALM      29.82F
MANASSAS*      PTCLDY    46  45  93 CALM      29.82F
LEESBURG*      MOCLDY    54  41  62 S3        29.82F
WINCHESTER     MOCLDY    55  32  41 S5        29.78F
$$

VAZ048-049-060>072-079>083-220800-
CENTRAL AND SOUTH CENTRAL VIRGINIA...AND NORTH CENTRAL NORTH CAROLINA

CITY           SKY/WX    TMP DP  RH WIND       PRES   REMARKS
RICHMOND       PTCLDY    50  46  86 SE5       29.85F
CHESTERFIELD*  NOT AVBL
HANOVER        PTCLDY    52  46  80 VRB5      29.86F
TAPPAHANNOCK*  PTCLDY    49  46  88 S5        29.85F
CHARLOTTSVILLE CLOUDY    54  35  48 CALM      29.81F
ORANGE*        CLOUDY    50  39  66 CALM      29.83F
LOUISA*        MOCLDY    54  37  54 S5        29.82F
FARMVILLE*     CLOUDY    50  39  66 CALM      29.82F
SOUTH HILL*    PTCLDY    54  45  71 SW5       29.91F
ROANOKE RAPIDS MOSUNNY   45  43  93 CALM      29.87F
RALEIGH        MOCLDY    50  39  66 CALM      29.87F
$$

VAZ088>098-220800-
SOUTHEAST VIRGINIA

CITY           SKY/WX    TMP DP  RH WIND       PRES   REMARKS
NORFOLK        CLEAR     46  44  93 SW3       29.87F
VIRGINIA BEACH CLEAR     40  38  93 W3        29.86F FOG
NORFOLK NAVAL  CLEAR     47  44  90 CALM      29.88F
WEST POINT*    CLEAR     46  43  90 CALM      29.87F
NEWPORT NEWS   PTCLDY    47  43  86 CALM      29.87F FOG
LANGLEY AFB    CLEAR     45  45 100 CALM      29.87F
FORT EUSTIS    CLEAR     47  46  94 CALM      29.85F
WILLIAMSBURG*  CLEAR     50  48  93 CALM      29.87F
FRANKLIN*      PTCLDY    46 N/A N/A CALM      29.87F
WAKEFIELD      PTCLDY    45  42  89 CALM      29.87F
$$

VAZ020-022-025-037-045-220800-
WESTERN AND SOUTHWEST VIRGINIA

CITY           SKY/WX    TMP DP  RH WIND       PRES   REMARKS
STAUNTON*      CLOUDY    50  39  65 CALM      29.84F
HOT SPRINGS VA MOCLDY    57  36  44 W10       29.96S
LYNCHBURG      CLOUDY    57  32  38 CALM      29.85F
DANVILLE       MOCLDY    52  44  74 CALM      29.85F
MARTINSVILLE     N/A     51  45  80 CALM      29.87F
ROANOKE        MOCLDY    59  38  45 CALM      29.86F
BLACKSBURG     PTCLDY    54  46  76 CALM      29.91F
DUBLIN*        MOCLDY    56  45  66 SW7       29.90F
MARION*        MOCLDY    55  42  62 W7        29.94F
HILLSVILLE*    MOCLDY    57  37  47 W5        29.94F
RICHLANDS*     MOSUNNY   63  42  46 SW5       29.93F
WISE*          CLOUDY    61  39  44 CALM      29.94F
ABINGDON*      PTCLDY    55  44  68 CALM      29.92F
$$

MDZ021>025-VAZ099-100-220800-
SOUTHERN MARYLAND AND THE DELMARVA PENINSULA

CITY           SKY/WX    TMP DP  RH WIND       PRES   REMARKS
PATUXENT RIVER CLEAR     50  46  86 S3        29.85F
BAY BRIDGE APT CLEAR     54  50  87 S8        29.84F
LEONARDTOWN    CLEAR     48  45  87 SW3       29.87F
DOVER          CLEAR     46  46  99 S6        29.81F
GEORGETOWN     CLEAR     45  42  89 SW3       29.85F
EASTON         CLEAR     49  49 100 SW5       29.88F
CAMBRIDGE      CLEAR     48  45  87 CALM      29.85F
SALISBURY      CLEAR     43  39  86 CALM      29.86F
OCEAN CITY     CLEAR     40  38  93 CALM      29.86F
WALLOPS ISLAND CLEAR     44  42  93 CALM      29.87F
ACCOMACK*      CLEAR     41  37  87 CALM      29.86F
$$

NCZ012>017-030>032-220800-
EASTERN NORTH CAROLINA

CITY           SKY/WX    TMP DP  RH WIND       PRES   REMARKS
ELIZABETH CITY FOG       43  43 100 CALM      29.87F VSB 1
AHOSKIE*       PTCLDY    43  42  96 CALM      29.88F
EDENTON*       CLEAR     45  43  95 CALM      29.88F
CURRITUCK*     CLEAR     42  40  91 CALM      29.88F
KILL DEVIL HLS CLEAR     47  46  97 CALM      29.86S FOG
MANTEO         PTCLDY    47  46  99 CALM      29.88S
CAPE HATTERAS  CLEAR     50  50 100 N3        29.87F
GOLDSBORO      PTCLDY    47  46  97 CALM      29.86F
WASHINGTON     CLEAR     47  43  86 CALM      29.89F
GREENVILLE     PTCLDY    46  46 100 CALM      29.90F
NEW BERN       PTCLDY    48  45  87 CALM      29.89F FOG
WILMINGTON     CLEAR     53  50  89 CALM      29.89F FOG
$$

VAZ048-220800-
ELSEWHERE

CITY           SKY/WX    TMP DP  RH WIND       PRES   REMARKS
HARRISBURG PA  MOCLDY    52  38  58 SE6       29.79F
BALTIMORE      MOCLDY    51  42  71 CALM      29.83F
ANNAPOLIS      CLEAR     52  48  86 S6        29.83F
ANDREWS AFB    PTCLDY    49  46  87 S6        29.83F
WILMINGTON DE  PTCLDY    49  45  86 SW3       29.85F
PHILADELPHIA   CLEAR     50  44  80 SW6       29.84F
WILDWOOD NJ*   CLEAR     45  39  81 CALM      29.86F
ATLANTIC CITY  CLEAR     41  38  89 CALM      29.84F
HENDERSON NC   PTCLDY    51  39  62 S6        29.86F
GREENSBORO     MOCLDY    58  35  42 SW7       29.85F
ROCKY MOUNT    PTCLDY    47  45  93 CALM      29.88F
FAYETTEVILLE   CLEAR     53  48  83 SW5       29.87F
CHARLOTTE      CLOUDY    55  47  74 CALM      29.89F
$$

VAZ100-220800-
MARINE

STATION/POSITION TIME  TEMP    WIND        PRES    WAVE   SWELL
                       AIR SEA DIR/SP/G            HT/PER HT/PER
                 (UTC) (F)     (DEG/KT/KT) (MB)    (FT/S) (FT/S)
44066 TX TWR #4  0700   47 45  150/  2/  2 1010.4F   5/ 8   5/ 8
CAPE MAY NJ      0700   49 56  220/  4/  5 1010.6F
LEWES DE         0700   48 49  190/  4/  6 1010.1F
15NM E FENWICK I 0700   47 46              1010.9F   5/10
OCEAN-CITY-INLET 0700   47 49   CALM  /  1 1010.6F
WACHAPREAGUE VA  0700   45 56  300/  2/  3 1011.0F
THOMAS POINT MD  0700   53 55  170/ 14/ 14 1010.7F
GOOSES REEF MD   0700   53     200/ 10/ 14   N/A
COVE POINT MD    0700   52     190/  9/ 10 1010.7F
SOLOMONS ISLAND  0700      54                N/A
BISHOPS HEAD MD  0700   54 58  180/  7/ 10 1010.7F
PINEY POINT MD   0700          200/  8/  8   N/A
POTOMAC MD       0700   52     210/  6/  8 1010.7F
CAMBRIDGE MD     0700   50 57  180/  3/  4 1010.4F
LEWISETTA VA     0700   51 57  220/  5/  6 1010.7F
RAPPAHANNOCK LGT 0700          180/  5/  5 1011.5F
STINGRAY PT      0700   52     230/  6/  6 1011.5F
YORK RVR RNG VA  0700   52     220/  5/  5 1010.5F
YORKTOWN VA      0700   49 55  190/  2/  2 1011.0F
JAMESTOWN VA     0700   52     210/  4/  6   N/A
DOMINION TERM VA 0700   53     210/  3/  3 1011.4F
KIPTOPEKE VA     0700      54   CALM  /  1   N/A
CHES BAY BRIDGE  0700   51 53  210/  2/  2 1011.1F
CAPE HENRY VA    0700   49     260/  2/  2   N/A
CHESAPEAKE LGHT  0600   49      80/  4/  5 1012.6F
WILLOUBY STN VA  0700   50     210/  1/  2 1010.5F
S CRANEY ISL VA  0700          220/  2/  2 1011.5F
CAPE HENRY BUOY  0700      46                N/A     5/10   2/11
1ST LANDING BUOY 0700      47                N/A     4/ 9   3/ 9
64NM E OF VA BCH 0700   48 48  340/  2/  4 1010.7F   6/10   7/10
DUCK PIER NC     0700   49 49  330/  2/  3 1010.5F
44100 DUCK FRF   0700      48                N/A     6/10   2/11
44056 DUCK FRF   0700      49                N/A     5/10   2/11
OREGON INLET NC  0700   48 52  360/  3/  4 1011.4F
HATTERAS NC      0700   54 56   20/  3/  7 1011.6F
DIAMOND SHLS NC  0700   56 76  340/ 12/ 16 1011.1F   7/ 9   7/ 9
CAPE LOOKOUT NC  0600   57      30/  4/  5 1012.2F
FRYING PAN SHLS  0700   65 66  270/  6/  8 1011.7F   4/10   3/10
$$



USA.gov is the U.S. government's official web portal to all federal, state and local government web resources and services.